GFSGL_925_thetae_000.txt.gz
Theta_e
294 293 293 292 291 291 291 290 294 297 296 296 295 294 293 291 290 290 289 289 288 288 287 286 285 285 284 283 282 281 281 281 282 283 284 284 284 288 289 290 290 288 292
293 293 292 292 292 291 291 291 293 295 295 295 293 292 292 291 289 288 288 288 288 287 286 285 285 283 283 282 281 280 281 281 282 283 283 284 284 288 288 287 288 289 288
293 293 292 292 292 291 291 292 293 293 292 292 293 292 289 289 288 288 288 288 287 285 285 285 283 283 282 281 280 281 281 282 282 283 284 284 284 285 287 287 286 287 287
292 292 292 292 292 291 291 291 292 292 293 292 290 290 289 288 288 288 287 286 286 285 285 284 283 282 281 281 281 281 281 281 281 282 283 283 283 285 286 285 285 285 285
292 292 292 292 291 291 291 291 292 292 292 292 291 288 289 288 287 287 286 285 285 284 284 283 283 282 282 282 281 280 280 280 281 282 282 283 283 283 283 284 284 283 284
292 292 292 292 291 291 291 291 291 293 290 289 288 289 287 287 286 286 285 284 284 284 282 281 280 279 279 279 279 279 279 279 280 281 281 282 283 283 283 282 282 282 283
292 292 292 292 291 291 291 291 292 292 292 291 290 287 287 286 285 283 282 281 281 280 279 277 277 278 277 277 277 278 279 279 280 281 281 281 282 282 282 281 282 282 282
292 292 292 291 291 290 291 291 291 292 291 291 288 286 285 284 282 281 280 279 278 277 276 276 276 277 277 277 278 279 279 279 280 279 280 280 280 281 282 281 281 282 282
292 292 292 291 291 290 290 291 290 290 290 287 286 285 283 281 280 279 279 278 277 276 276 276 276 276 277 278 279 279 279 279 279 279 279 279 279 280 281 282 282 281 281
292 292 291 291 291 290 290 289 288 287 286 286 284 283 281 280 279 278 278 277 276 277 276 276 276 276 277 278 278 277 278 279 279 279 279 279 278 278 279 280 281 282 282
292 292 291 291 291 289 289 288 287 286 286 284 283 282 281 280 278 277 278 277 277 277 276 275 275 276 277 277 278 277 278 277 277 278 278 278 278 279 279 279 279 279 280
291 291 291 291 290 289 288 288 287 285 284 283 282 282 281 279 278 277 277 277 277 276 275 275 276 276 276 276 276 277 277 276 276 277 277 278 278 279 279 280 280 280 279
290 291 290 290 289 288 288 287 285 284 284 284 283 281 281 279 278 277 277 277 276 275 275 275 275 274 274 274 274 275 275 275 275 276 276 277 278 279 280 280 281 281 281
290 289 289 288 288 288 288 286 285 285 284 284 283 281 281 280 278 278 278 277 276 275 275 274 274 273 273 273 273 273 273 274 274 274 275 276 278 279 280 281 281 282 282
289 288 288 288 288 288 287 285 286 285 284 283 283 282 282 281 279 278 279 277 276 275 274 274 274 273 272 272 272 272 272 272 273 274 274 275 276 278 280 281 282 282 282
287 287 287 286 288 289 286 285 285 285 284 284 283 283 282 281 280 279 279 278 276 275 274 273 273 273 272 272 272 271 271 270 271 273 274 274 275 277 278 280 281 281 282
288 288 287 287 287 288 287 285 285 285 284 284 283 283 282 282 280 279 279 278 277 276 275 274 273 273 273 272 271 271 271 270 271 272 273 274 275 276 277 278 279 279 280
288 288 288 288 288 288 288 287 285 285 284 284 283 283 283 282 281 280 279 278 278 277 275 274 274 273 272 272 271 271 271 270 270 272 272 273 274 275 276 276 277 277 278
289 289 288 287 287 287 286 287 287 285 284 284 284 283 283 282 281 280 279 278 278 278 277 276 275 274 273 272 271 271 270 269 269 271 272 272 273 274 274 275 275 276 277
289 289 288 287 287 286 286 286 286 285 285 285 284 283 283 282 282 282 281 280 279 279 278 277 276 275 274 273 272 271 271 270 269 269 271 272 272 272 273 273 275 275 275
288 289 288 287 287 286 286 286 285 284 284 285 284 283 283 283 283 282 282 281 281 280 279 278 277 276 275 274 272 271 271 270 269 269 270 271 271 271 272 273 274 274 274
287 288 288 287 287 286 286 285 285 284 284 284 285 283 283 283 283 283 283 282 282 281 280 279 278 277 276 275 273 272 271 271 270 269 269 270 271 271 271 272 273 273 273
287 287 287 286 286 286 286 285 285 284 284 284 285 284 284 283 283 283 283 283 282 280 280 279 279 278 276 275 274 273 271 271 270 269 269 270 271 270 270 271 271 272 272
287 286 287 286 286 286 286 285 284 284 283 283 284 285 284 284 283 283 283 282 282 281 280 280 279 278 277 276 274 273 272 271 271 269 269 270 270 270 270 270 270 270 271
287 287 287 287 287 286 286 286 286 285 284 284 284 284 284 284 284 283 283 282 282 281 281 280 279 279 277 276 275 274 272 272 271 270 270 269 270 270 270 270 270 270 270
287 287 287 287 286 286 286 286 286 286 285 285 285 285 284 284 284 284 283 282 281 281 280 280 280 279 278 277 275 274 272 272 271 270 270 270 269 269 269 269 270 270 270

GFSGL_925_thetae_006.txt.gz
Theta_e
298 298 298 297 297 296 295 294 294 294 294 295 297 297 296 295 294 294 292 291 290 290 290 290 289 288 288 288 287 287 287 287 287 286 286 286 286 286 287 287 288 288 290
297 297 297 297 296 296 295 294 294 294 294 294 295 295 295 294 294 292 291 291 291 290 290 289 288 288 287 287 287 287 286 286 285 285 285 285 285 284 285 286 287 287 290
296 297 297 296 296 295 295 294 294 294 294 294 294 294 293 292 291 291 291 291 290 289 289 288 288 287 287 286 286 286 285 284 285 284 284 283 283 284 285 285 286 288 289
296 296 296 296 296 295 294 294 293 293 294 294 294 294 293 291 290 290 290 290 289 289 288 288 287 286 285 284 283 284 283 283 283 283 283 283 283 283 284 285 287 287 288
296 296 296 295 295 295 294 293 293 293 294 294 293 291 291 290 289 289 290 289 289 287 286 285 284 282 281 280 280 281 281 281 281 281 282 283 283 283 284 284 285 286 287
296 296 295 295 295 295 294 293 293 293 293 294 293 292 292 289 288 286 286 286 286 285 284 283 282 281 281 279 280 279 279 280 280 281 282 283 282 283 284 284 285 285 287
295 295 294 294 294 294 293 293 293 293 293 293 293 292 291 290 285 284 283 284 285 284 283 282 282 281 281 281 280 280 280 281 280 280 281 281 282 283 283 283 284 285 285
294 294 294 294 293 293 293 293 293 293 292 291 291 291 291 287 283 282 282 284 283 282 282 281 281 281 281 279 279 280 280 280 280 280 281 281 282 282 283 282 283 283 284
294 294 293 292 293 292 293 293 293 292 291 291 291 290 289 286 283 282 281 283 283 282 281 281 280 279 279 278 278 279 280 280 281 280 279 280 280 281 280 281 281 282 284
294 292 292 292 292 292 292 293 293 292 291 290 289 288 285 285 282 281 280 282 282 282 281 280 279 278 277 277 277 278 279 279 279 279 279 280 280 281 281 281 281 282 283
292 292 292 292 292 292 292 293 292 292 290 289 287 286 285 284 283 281 280 281 281 281 281 280 279 278 277 277 276 277 277 276 278 279 279 280 281 281 281 282 282 282 282
292 292 292 292 292 292 292 292 292 291 290 289 287 286 286 284 282 281 280 279 278 279 280 280 279 277 276 276 276 275 275 276 278 279 279 280 281 281 282 282 282 282 282
292 292 291 291 291 291 291 292 291 290 289 289 288 287 288 287 284 282 280 279 279 279 279 278 276 276 276 277 276 275 275 277 277 278 279 279 280 280 281 282 282 282 282
291 291 291 290 289 290 291 291 290 290 289 288 288 288 287 286 285 284 283 282 281 280 280 279 278 277 277 277 278 277 277 276 275 277 278 278 280 281 282 283 284 284 284
291 290 290 290 289 289 289 290 290 290 289 289 288 287 286 286 285 284 283 282 282 281 278 279 280 280 279 279 278 278 277 276 275 276 277 278 279 280 281 283 284 285 286
290 290 291 290 290 289 289 289 290 289 287 286 285 284 285 284 283 283 282 280 280 279 279 280 281 280 280 279 279 278 278 276 275 275 277 278 278 279 280 282 283 284 285
290 290 290 290 290 290 290 289 290 289 286 285 285 285 284 283 283 283 282 281 280 279 280 281 281 280 280 279 279 278 277 276 274 274 276 276 277 278 280 281 281 282 283
290 289 290 291 291 290 290 290 290 290 290 289 288 286 285 284 283 283 282 281 282 281 281 281 281 281 280 280 279 278 277 276 276 275 275 276 276 277 279 279 280 280 280
289 290 290 290 290 290 289 289 289 288 289 288 288 287 286 285 283 283 283 282 282 282 282 282 282 281 280 280 279 278 277 276 275 274 275 275 275 276 277 278 279 279 279
290 290 289 288 288 289 290 289 289 289 288 288 287 287 286 285 285 284 283 283 283 283 283 283 282 282 281 280 279 278 278 277 276 275 275 275 275 275 275 276 277 278 279
291 290 288 288 288 288 289 289 289 289 289 288 288 287 286 285 285 285 285 285 284 284 283 283 283 282 281 280 280 279 278 277 276 275 274 274 274 275 275 275 276 277 277
290 290 289 289 289 288 288 288 288 288 288 288 288 287 286 285 285 285 285 285 284 284 284 283 283 283 282 281 280 279 278 277 276 275 275 273 274 275 275 275 275 275 276
289 289 289 289 289 288 287 287 287 287 287 288 288 287 287 286 285 285 285 285 284 284 284 283 283 283 282 281 280 280 279 278 277 275 274 273 274 275 275 275 275 275 274
289 288 288 288 288 288 288 287 286 286 286 287 287 287 286 286 286 285 285 285 285 284 284 284 283 282 282 281 279 279 278 277 275 274 273 273 273 274 275 275 274 274 274
289 288 288 288 288 288 287 287 287 287 286 286 286 286 286 286 286 286 285 285 285 284 284 284 283 282 282 281 280 279 278 277 275 274 273 272 272 272 273 273 273 274 274
288 288 287 287 287 287 287 287 287 286 286 285 285 285 285 285 285 284 284 284 284 284 284 284 283 283 282 282 281 280 279 277 275 274 273 273 273 273 274 274 273 273 274

GFSGL_925_thetae_009.txt.gz
Theta_e
302 301 300 300 300 299 298 297 296 295 295 295 295 296 296 296 295 295 295 295 293 293 292 292 291 291 290 289 289 289 289 289 290 289 288 287 287 286 286 286 286 287 288
302 300 300 300 299 298 297 296 296 295 295 295 295 295 295 295 294 294 293 293 292 292 292 291 290 290 289 288 288 288 288 288 288 288 287 287 286 285 285 285 286 287 287
300 300 300 300 299 298 297 296 295 295 295 295 295 295 294 295 294 293 292 292 292 292 291 291 290 289 288 287 287 287 286 286 286 285 286 285 284 284 285 285 285 286 287
300 300 300 299 299 298 297 296 295 294 294 295 295 294 294 293 292 292 292 291 291 291 290 289 288 287 286 285 284 284 284 284 284 284 284 283 284 284 284 285 286 286 287
300 299 299 299 298 297 297 296 295 294 294 294 294 294 294 293 292 290 291 291 290 289 288 287 286 285 283 281 281 282 282 282 282 282 282 282 283 284 284 284 285 285 286
299 299 299 298 297 296 296 295 295 294 294 294 294 294 294 293 291 290 286 287 288 288 287 286 285 284 283 282 282 281 280 281 281 282 282 282 282 282 283 284 284 285 286
299 298 298 297 296 296 295 294 294 294 294 294 293 293 294 293 291 287 285 285 287 287 286 285 284 283 283 283 282 281 281 281 281 282 282 282 283 283 283 284 284 284 285
298 297 297 296 295 295 294 294 294 294 294 293 293 292 292 291 289 286 283 285 287 286 285 284 283 283 282 280 279 280 280 281 281 281 281 281 281 281 280 281 282 282 283
297 296 296 294 294 294 294 294 294 294 294 293 293 292 291 289 288 285 283 285 286 285 284 283 282 281 281 278 278 279 280 280 281 280 280 280 280 280 280 281 281 282 283
297 296 294 294 294 293 293 293 293 294 293 293 292 291 290 289 287 285 283 284 285 284 284 283 282 280 279 278 278 278 279 280 278 278 279 280 281 281 282 282 282 282 283
295 294 294 293 293 293 293 293 293 293 293 293 291 290 289 287 286 285 282 282 284 283 282 283 282 281 279 278 277 277 278 276 277 279 280 280 281 282 283 283 283 283 284
294 294 293 293 293 293 293 293 293 293 293 292 291 290 289 287 286 284 283 281 280 281 282 282 282 280 278 277 278 278 277 277 279 279 280 281 281 281 282 282 282 283 283
293 293 293 293 292 292 292 292 293 293 292 292 291 290 289 289 288 285 284 282 281 280 281 281 280 279 279 279 280 278 278 279 278 278 279 280 280 281 282 283 284 283 283
292 292 292 292 291 291 291 292 292 292 292 291 290 289 289 288 288 287 284 283 282 281 282 282 280 280 281 281 280 281 280 279 278 278 278 279 280 281 281 282 283 285 285
291 291 292 291 292 292 291 290 292 292 291 291 290 290 289 288 287 286 286 285 284 283 281 281 282 282 282 282 281 281 280 280 279 277 278 279 279 280 281 281 283 284 285
291 291 292 292 292 292 291 290 290 290 290 289 288 288 288 286 284 284 283 283 282 281 281 282 282 283 282 282 282 281 281 280 279 277 277 278 278 279 280 281 282 283 284
291 291 291 291 292 292 291 290 290 290 290 289 288 287 286 285 285 284 283 282 281 281 281 282 283 283 283 282 282 281 281 280 278 278 277 277 278 278 279 281 281 282 282
290 291 291 291 292 292 291 291 290 291 291 290 289 287 286 286 285 284 283 282 282 282 282 282 283 283 283 282 282 281 280 279 279 278 277 278 277 277 278 279 280 281 281
292 292 291 291 291 290 290 290 290 290 289 289 289 289 288 287 286 285 283 283 283 283 284 284 284 284 283 283 282 282 280 279 278 278 278 278 278 278 277 278 279 279 280
292 292 291 290 290 289 288 289 290 291 290 290 289 288 288 287 286 285 284 284 284 284 284 284 284 284 284 283 282 282 281 280 280 279 278 277 277 277 278 277 278 278 279
293 293 292 290 290 289 289 289 289 290 290 289 290 289 289 288 288 287 287 286 285 285 285 285 284 284 284 283 282 281 281 280 279 279 278 277 277 276 277 277 277 277 278
293 293 292 291 291 291 290 290 289 289 289 289 289 289 289 288 287 287 287 287 286 286 286 285 285 285 284 284 283 282 281 280 280 278 278 277 276 277 277 277 277 277 277
292 292 291 291 290 289 290 289 289 288 288 288 288 288 288 289 288 287 287 286 286 286 286 285 285 285 284 284 283 282 281 281 280 279 278 277 276 277 277 277 277 277 276
291 291 291 291 289 289 289 289 288 288 288 287 287 287 288 288 288 287 287 287 286 286 286 286 285 285 284 284 283 282 281 280 279 278 276 276 276 276 276 276 277 276 276
289 290 290 290 289 289 288 288 288 288 288 288 287 287 287 287 287 287 287 287 286 286 285 285 285 285 285 284 283 282 281 280 279 277 276 275 275 275 275 275 276 275 276
287 288 288 289 289 288 287 287 288 288 287 286 286 286 285 285 285 284 284 284 284 284 284 284 284 285 285 284 283 282 281 280 279 277 276 276 275 275 276 276 275 275 276

GFSGL_925_thetae_012.txt.gz
Theta_e
305 303 302 301 301 300 299 298 297 296 296 296 296 296 296 296 295 295 295 294 295 294 293 293 292 292 291 290 290 289 289 289 288 288 287 287 286 286 286 285 285 285 285
305 303 301 301 301 300 299 298 297 296 296 295 295 295 295 295 295 295 294 293 293 293 293 292 291 290 290 289 288 288 287 286 286 285 285 285 285 284 285 284 285 285 285
304 302 302 301 301 300 299 298 297 296 295 295 295 295 295 294 295 294 294 292 292 292 292 291 290 289 287 287 286 284 283 284 284 284 283 284 284 283 283 284 285 285 285
303 302 301 301 300 300 299 298 297 296 295 295 295 295 295 294 293 293 292 292 291 291 290 289 288 287 286 285 283 282 282 282 282 282 282 282 282 282 283 284 284 284 285
302 301 301 300 300 299 298 297 297 295 295 295 294 295 295 295 294 292 290 290 289 289 288 288 287 286 285 284 283 282 282 281 281 281 282 282 282 282 282 283 284 284 284
301 301 300 300 299 298 297 297 296 296 295 294 294 294 294 295 293 292 290 288 287 288 288 287 286 285 284 283 283 282 281 281 281 281 281 281 282 282 283 283 282 283 284
301 300 299 299 297 298 296 296 296 295 295 295 294 294 293 294 293 292 290 287 286 287 287 286 285 284 284 283 282 281 279 280 281 281 282 282 282 281 281 280 280 281 282
300 299 298 298 297 296 296 295 295 295 295 295 294 293 293 292 292 291 288 286 286 287 286 285 284 284 282 281 280 279 279 280 280 281 280 279 280 280 280 280 281 281 281
299 298 297 297 295 294 294 294 294 294 294 294 294 293 292 291 290 289 286 285 286 286 285 284 284 283 281 281 279 278 278 279 280 279 278 279 280 280 281 281 281 281 281
299 298 295 296 295 294 293 293 293 294 294 294 294 292 291 290 289 287 286 285 284 285 284 284 283 282 281 280 278 278 278 278 278 277 279 280 280 281 282 282 282 282 282
296 296 297 295 294 293 293 293 293 293 293 293 293 292 290 289 288 287 286 285 283 284 283 283 283 282 281 280 278 278 278 278 277 278 279 279 280 281 281 281 282 283 283
296 295 294 293 293 293 293 292 293 293 293 294 292 291 290 290 288 287 286 285 282 281 281 282 282 282 280 280 279 279 279 278 279 279 278 279 280 280 280 281 282 283 284
294 294 293 293 293 292 292 291 292 293 293 293 292 291 291 289 289 288 287 285 283 282 282 281 281 281 281 281 281 280 280 280 280 279 278 278 279 279 280 281 282 282 284
292 292 292 292 292 291 291 291 291 291 293 292 291 291 291 290 289 289 287 285 283 283 283 283 282 281 282 282 282 282 281 281 280 279 278 277 278 279 280 280 281 282 283
292 292 292 292 291 292 292 292 291 290 290 290 291 291 291 290 288 287 287 286 285 284 283 282 281 282 283 283 282 282 281 281 280 279 278 278 278 278 279 279 280 282 283
291 291 291 292 292 291 291 292 291 291 290 290 290 290 289 290 288 286 285 284 284 283 282 281 282 282 283 283 282 282 282 281 280 279 278 278 278 278 278 279 281 281 282
290 291 291 291 292 292 292 292 291 291 290 290 290 290 289 287 287 286 285 283 283 282 281 281 281 282 283 283 282 282 282 281 280 279 278 277 278 278 277 278 280 280 280
291 291 291 291 292 292 292 292 291 291 291 290 290 290 290 288 286 285 285 284 283 282 281 282 282 283 283 283 282 282 282 281 279 279 278 277 278 278 278 278 278 279 279
292 292 292 292 292 292 290 290 289 289 290 290 289 289 289 289 289 287 286 284 283 283 283 283 283 283 284 284 283 282 282 281 280 279 278 278 278 277 278 278 277 278 278
293 293 293 293 292 292 291 290 289 289 289 289 290 290 289 289 288 287 286 285 284 284 284 284 284 283 284 284 284 283 282 281 280 280 279 278 278 277 277 278 277 277 277
293 293 293 294 293 292 291 290 289 289 289 289 289 289 289 289 289 287 286 285 285 285 285 285 285 284 284 284 284 283 282 281 280 280 279 278 277 277 276 277 278 277 277
291 292 292 293 292 292 291 290 290 290 290 289 289 289 288 288 288 288 288 287 287 287 286 286 286 285 285 285 284 284 283 282 281 280 279 278 277 276 277 277 277 277 277
288 289 290 291 291 291 291 290 290 289 289 289 289 288 288 288 288 288 288 288 287 287 287 287 286 286 286 285 285 284 283 282 282 281 279 278 277 277 277 277 277 277 276
284 285 286 286 286 288 290 290 289 289 289 289 288 288 288 288 287 287 288 288 288 287 287 287 286 286 286 286 285 284 284 283 282 281 280 278 277 276 276 276 277 277 276
283 284 285 286 286 287 288 289 289 288 288 287 288 287 288 286 286 286 286 286 286 285 286 285 285 285 285 285 285 285 284 283 282 281 280 278 276 276 276 276 276 276 275
280 279 280 282 286 287 287 288 287 285 286 286 286 286 285 285 284 284 283 283 283 283 283 283 283 283 283 284 284 285 285 284 282 281 280 278 276 275 275 275 275 275 275

GFSGL_925_thetae_015.txt.gz
Theta_e
304 304 303 301 300 300 299 298 297 297 296 296 295 295 295 295 295 295 294 294 293 293 293 292 292 291 290 289 288 287 287 285 284 284 284 284 283 283 283 283 283 283 284
304 304 302 301 301 300 299 298 297 296 296 295 295 295 295 295 295 294 294 294 293 292 292 291 291 290 289 287 287 286 284 283 283 282 282 282 282 282 282 282 282 283 283
305 304 302 301 301 300 299 298 297 297 296 295 294 295 295 295 294 293 293 292 292 292 291 291 289 289 287 286 285 284 283 282 282 281 281 281 281 281 281 282 282 282 283
305 303 302 302 301 301 299 298 297 297 296 295 294 294 295 295 294 293 293 291 290 290 289 288 288 287 286 285 284 283 282 282 281 281 280 280 281 281 282 282 282 282 282
304 303 302 301 301 300 298 298 297 297 296 295 294 294 294 295 294 294 293 292 289 288 288 288 287 286 285 284 283 283 282 282 281 281 280 280 280 281 281 282 281 281 280
304 302 301 301 300 298 297 297 296 296 296 296 295 294 294 294 294 294 293 291 289 287 287 287 286 285 284 283 283 282 281 280 280 280 281 281 281 281 282 281 280 279 279
303 301 299 299 298 297 298 296 295 296 296 295 295 294 294 293 293 293 292 291 288 286 287 287 286 284 284 283 282 281 281 278 280 279 280 278 278 278 279 280 279 280 280
301 298 297 298 298 297 295 296 296 295 294 294 294 295 294 293 293 292 291 290 287 286 286 286 285 284 283 282 282 280 279 277 278 279 279 278 278 279 280 281 281 281 280
298 298 298 297 296 295 295 294 294 293 293 294 294 294 294 293 292 291 290 287 285 286 285 285 284 284 282 282 281 280 278 277 278 278 278 278 279 280 280 281 282 282 281
296 296 296 296 296 294 294 293 293 293 293 293 293 293 292 291 290 289 288 286 285 285 285 284 283 283 281 281 281 279 278 279 278 278 279 278 278 280 280 280 281 281 282
296 296 296 296 294 294 293 293 293 292 292 292 293 292 291 291 290 289 288 286 286 285 284 283 282 282 282 281 280 279 279 279 279 279 279 278 278 279 279 279 280 281 282
296 296 295 294 294 293 293 292 292 291 291 292 292 291 291 290 290 289 288 287 286 285 283 282 281 282 282 281 281 280 280 280 280 279 279 278 278 278 278 279 280 280 281
297 295 294 294 293 292 292 292 291 291 291 291 292 291 291 291 290 289 289 288 287 285 284 282 282 282 282 281 281 281 281 281 280 280 279 278 277 278 278 278 279 280 281
293 293 292 292 292 292 291 291 291 291 291 290 290 291 291 291 290 290 289 288 287 285 284 283 282 282 281 281 282 282 282 281 281 280 279 278 278 277 278 277 278 280 281
292 292 292 291 291 291 291 292 292 291 291 290 290 290 290 290 291 290 288 288 287 286 285 283 283 282 281 282 282 282 281 282 281 280 279 278 278 278 277 277 279 280 280
292 291 291 291 292 292 291 291 292 292 291 291 290 289 290 290 289 290 288 286 285 286 284 283 283 281 281 281 282 282 281 282 281 280 279 278 277 278 277 277 278 278 279
292 291 291 290 291 290 291 292 292 292 291 291 290 290 289 290 289 288 288 286 284 283 282 282 281 281 281 281 282 283 282 282 281 280 278 278 277 278 277 278 277 277 278
293 292 291 291 291 291 291 291 292 291 289 288 288 289 290 289 289 289 287 286 284 283 283 282 282 281 281 282 282 283 282 281 281 280 279 278 277 278 277 277 277 277 277
292 292 292 292 292 292 292 292 291 290 289 289 288 288 288 289 289 289 289 286 284 283 283 282 282 282 282 282 282 283 283 282 282 280 280 279 278 278 277 277 277 277 277
291 291 291 291 291 291 291 291 291 290 290 288 288 289 289 288 288 288 288 286 284 284 284 283 283 283 283 283 283 284 284 283 282 281 280 279 278 278 277 276 277 277 277
286 287 288 289 290 290 291 291 291 290 289 288 288 289 289 289 288 288 288 286 285 285 284 285 284 283 284 284 283 284 284 283 283 282 280 280 279 277 277 276 277 277 277
284 283 283 283 284 285 285 287 289 289 289 289 289 289 289 289 289 288 288 287 287 287 286 286 286 285 285 284 284 284 284 284 283 282 281 280 279 278 277 276 277 277 277
280 281 281 282 283 283 284 285 285 286 288 289 289 288 288 288 288 288 288 287 287 287 286 285 286 286 286 286 286 285 285 284 284 283 282 281 279 278 277 276 277 276 277
279 279 278 278 278 279 281 285 285 286 286 288 288 288 288 287 287 287 287 287 287 287 287 286 287 287 286 286 285 285 285 285 285 284 283 281 280 278 277 276 276 276 276
275 273 273 274 275 276 277 277 279 282 284 286 287 287 286 287 286 286 284 284 284 284 284 284 285 285 285 285 285 284 284 285 285 284 283 282 280 279 277 276 276 276 276
272 271 270 271 271 272 273 274 274 274 275 275 276 277 278 278 279 279 279 279 279 280 280 280 282 282 282 282 282 282 284 284 285 284 284 282 280 279 277 276 276 275 275

GFSGL_925_thetae_018.txt.gz
Theta_e
311 307 303 302 301 300 299 298 298 297 296 295 295 295 295 295 295 295 294 294 293 293 293 292 292 291 291 290 288 287 286 284 283 283 282 282 281 280 281 281 281 282 282
311 305 303 302 301 300 299 299 298 297 297 296 295 294 294 295 295 294 294 293 293 292 292 291 291 291 289 288 287 286 284 283 282 281 282 281 280 280 281 281 281 281 282
304 303 303 302 301 300 299 299 297 298 297 296 296 295 294 295 295 294 294 293 292 291 291 291 289 289 288 286 285 284 283 282 282 281 281 280 280 280 281 281 281 282 281
304 303 303 302 301 300 300 298 299 297 296 296 296 295 294 294 295 294 294 292 291 290 290 289 288 287 286 285 284 283 282 282 282 281 280 280 280 280 280 280 281 281 280
304 304 303 302 301 301 299 297 297 296 296 296 295 295 295 294 294 294 294 294 292 289 288 287 287 286 286 285 283 283 282 281 280 279 279 280 280 280 280 280 280 280 279
304 304 303 302 301 299 297 296 296 295 295 295 295 295 295 294 294 294 294 293 292 289 287 287 287 286 285 284 283 282 281 280 279 279 279 279 279 278 278 278 279 279 280
303 302 302 301 298 297 297 296 296 295 295 295 295 295 295 295 294 294 294 292 290 289 287 287 286 285 284 283 283 282 281 280 278 277 278 279 278 278 279 279 279 280 280
301 300 298 297 297 296 297 296 297 295 294 293 293 293 294 294 294 293 293 292 291 289 286 286 286 285 284 283 282 282 281 281 278 278 278 278 278 279 279 280 281 281 281
298 298 297 297 296 296 298 298 294 294 293 293 293 293 293 293 293 292 292 290 289 287 286 286 285 284 283 282 282 281 281 280 279 279 279 279 278 278 279 280 280 280 280
296 296 296 295 296 297 296 294 294 293 293 292 292 292 292 292 292 292 291 289 288 286 285 285 284 283 283 282 281 281 280 279 279 279 279 279 278 278 277 278 279 279 280
296 296 296 297 298 297 295 293 293 292 292 291 291 292 292 292 291 290 290 288 288 286 285 284 283 282 282 282 282 281 280 280 280 280 280 279 279 278 277 278 278 279 279
297 298 298 298 296 294 293 292 292 292 291 291 291 292 292 291 290 290 289 288 287 286 286 285 283 282 281 282 282 281 281 281 281 281 280 280 279 277 277 278 277 278 280
299 298 296 294 293 293 292 292 291 291 291 291 290 290 291 291 290 290 289 289 288 287 287 286 284 282 282 282 281 281 281 281 281 281 280 280 279 278 277 277 278 279 280
293 293 293 292 291 291 291 291 291 291 291 291 290 289 290 291 290 290 289 289 288 287 286 286 284 283 282 282 281 281 282 282 281 281 280 280 278 278 277 277 277 278 279
292 291 291 291 290 290 291 291 291 291 291 291 291 290 290 289 290 290 290 290 289 288 286 285 284 282 282 283 282 281 282 282 281 281 280 279 278 277 277 277 277 277 278
292 291 291 291 290 290 291 291 290 290 291 291 291 290 290 290 289 289 290 289 289 288 286 285 284 283 283 283 282 281 281 282 282 281 280 279 278 277 277 277 277 277 277
292 292 292 292 291 291 291 290 289 291 291 291 291 291 290 289 290 290 289 289 289 287 285 283 282 283 284 283 281 281 281 282 282 281 280 279 278 277 277 277 277 277 277
291 291 290 290 289 289 289 289 289 289 289 290 291 290 290 289 288 289 289 288 287 286 284 283 283 283 282 282 281 281 281 282 282 281 280 280 278 277 278 277 277 277 277
286 285 285 286 287 288 289 289 289 289 290 290 290 289 289 290 289 288 288 288 286 284 284 283 282 282 283 283 282 282 282 282 282 282 281 280 279 278 278 277 276 277 277
283 283 283 282 282 283 283 284 285 287 289 290 289 289 288 287 288 288 287 287 287 285 284 283 284 283 283 283 283 283 282 282 283 283 282 281 280 279 278 277 276 277 277
279 279 280 280 281 281 281 282 282 283 284 284 285 287 288 287 287 288 288 287 286 285 285 284 283 284 285 285 284 283 283 283 283 284 283 282 280 279 278 277 276 277 277
277 278 278 278 277 278 278 278 278 280 282 283 284 285 286 287 287 287 288 288 288 287 286 286 285 285 284 285 285 284 283 283 283 283 283 283 281 280 278 277 276 276 277
274 273 273 273 273 274 275 275 276 276 276 277 280 284 285 286 287 287 287 288 287 287 286 286 286 285 285 284 286 285 285 285 285 284 284 283 282 280 279 277 276 276 276
272 271 270 270 270 271 271 272 273 272 273 273 274 275 277 281 287 287 287 286 286 285 284 285 286 286 285 285 286 286 286 285 285 284 284 284 283 282 279 278 276 276 276
270 269 268 268 268 268 269 269 269 269 270 271 271 271 272 273 274 274 275 277 278 280 281 282 283 284 284 285 285 285 285 284 284 284 284 283 283 283 280 278 277 276 276
268 268 267 266 266 266 267 267 267 267 268 268 269 269 270 270 271 271 271 272 273 275 275 277 277 278 280 282 282 282 282 282 283 284 284 283 282 282 281 279 277 276 276

GFSGL_925_thetae_024.txt.gz
Theta_e
322 323 319 315 313 311 309 302 299 298 297 296 295 294 294 294 294 294 295 294 294 293 293 293 293 293 293 292 291 290 289 287 284 284 283 283 282 282 279 279 280 280 280
322 319 313 311 310 306 303 301 299 298 296 296 295 295 294 294 294 295 294 294 294 293 293 293 292 292 291 291 290 289 288 286 284 282 282 282 282 280 278 279 279 279 279
317 314 312 309 308 305 302 300 299 297 297 296 295 295 294 295 296 294 294 294 294 294 293 293 292 291 291 290 289 288 286 285 283 281 281 281 280 279 278 279 279 278 278
312 310 308 307 306 303 301 299 297 297 297 296 296 295 295 297 295 294 294 294 294 294 293 293 292 291 291 289 288 286 285 284 282 281 281 280 279 278 278 278 278 278 278
308 307 305 305 305 301 300 298 298 297 297 296 295 295 298 298 294 294 294 294 294 294 293 292 291 290 289 287 286 285 284 283 282 281 280 279 278 277 278 277 277 278 278
309 307 306 304 302 300 299 298 297 296 296 294 295 298 298 296 295 294 293 294 294 293 292 292 290 288 290 287 286 285 284 283 282 280 279 278 277 278 278 278 278 278 279
306 305 305 303 301 299 299 298 296 295 296 298 297 298 296 295 293 293 293 293 293 293 292 291 289 290 289 286 285 284 283 282 281 280 280 278 277 278 279 279 278 278 279
303 302 301 300 299 298 296 296 297 298 298 296 297 296 294 294 293 293 292 292 293 293 292 291 289 290 288 286 285 284 283 281 281 280 280 279 278 279 279 279 278 278 278
298 298 297 297 296 296 297 298 297 297 297 298 296 293 293 293 292 292 291 291 292 292 292 290 290 289 288 286 285 283 282 282 281 281 279 279 279 279 279 279 278 277 277
296 296 296 297 297 297 297 297 297 298 297 294 293 293 292 291 290 291 291 291 291 291 290 289 289 288 286 285 284 283 282 282 281 280 279 280 280 280 280 279 277 277 277
297 297 297 298 298 297 298 298 297 296 295 293 292 292 291 290 290 290 291 291 291 290 289 289 289 288 286 285 284 283 282 281 281 280 280 280 281 280 280 279 278 277 277
298 298 298 298 298 297 296 295 294 292 292 292 291 291 290 290 291 290 290 291 290 289 289 289 289 287 286 285 284 283 282 281 281 281 281 281 281 281 280 279 278 277 277
295 294 293 293 293 292 291 291 290 290 290 290 290 290 290 290 290 290 290 290 290 288 288 289 289 287 286 285 284 283 282 282 282 281 281 281 281 281 280 279 277 277 277
291 291 291 291 291 290 290 290 290 290 289 289 289 288 289 289 289 290 290 290 290 289 289 288 288 288 288 285 284 283 282 282 282 281 280 281 281 281 280 279 277 277 277
290 290 289 289 288 288 288 287 287 288 288 288 288 288 288 288 288 289 290 290 290 290 289 288 287 285 284 284 284 283 282 282 281 281 280 281 281 281 280 279 277 277 276
286 285 284 283 282 282 282 282 282 282 283 284 286 286 287 287 288 288 288 288 289 290 288 286 284 283 282 283 282 282 281 282 283 282 281 280 281 281 280 279 277 277 276
281 281 280 280 280 280 280 280 280 280 280 280 281 281 281 281 281 282 284 284 287 288 287 286 285 283 283 282 282 282 281 283 285 283 282 281 281 281 279 279 277 277 276
279 279 279 279 278 278 277 278 278 278 278 278 278 278 278 279 279 280 282 283 285 286 287 287 285 284 283 282 282 282 282 282 283 283 282 281 281 281 280 279 278 277 276
277 277 277 277 276 275 275 276 275 276 276 276 276 275 274 274 276 277 279 282 283 284 286 287 285 285 285 284 283 283 282 283 284 283 282 281 280 281 280 280 279 277 276
275 274 274 274 273 273 273 273 273 273 273 273 273 272 272 272 273 274 274 274 275 280 284 285 286 286 284 284 284 283 282 282 282 282 281 281 281 281 281 280 280 278 277
273 272 272 272 271 271 270 270 270 271 270 270 270 270 270 270 271 271 272 272 272 273 274 285 285 285 285 285 285 283 282 281 281 282 282 281 281 281 281 281 280 279 277
271 270 270 269 269 268 268 268 268 267 267 267 267 267 268 268 269 269 270 270 269 270 272 273 284 286 286 286 285 284 283 281 281 281 283 282 281 281 281 281 280 279 277
269 269 268 267 267 266 266 266 266 265 265 265 265 265 266 266 267 267 267 268 268 269 270 273 272 276 282 284 284 284 284 283 282 282 282 282 282 281 281 281 280 279 277
268 267 267 266 265 265 264 264 264 264 263 263 263 263 264 264 265 265 265 265 266 267 269 270 272 272 275 278 281 283 283 283 283 283 282 284 283 283 281 280 280 279 278
267 266 266 265 264 264 263 263 263 262 262 262 262 262 262 263 263 263 263 264 264 265 267 269 270 272 273 274 277 280 282 282 283 283 282 283 283 283 282 281 280 279 278
266 265 265 264 263 263 262 262 262 262 261 261 261 261 261 261 261 262 262 262 263 265 266 268 270 271 273 274 275 277 278 281 282 282 282 283 283 282 281 280 279 279 278

GFSGL_925_thetae_027.txt.gz
Theta_e
323 324 322 321 319 315 312 309 307 306 301 298 296 299 295 295 294 294 293 294 295 295 294 293 293 293 293 293 293 292 291 290 290 289 287 285 284 284 283 282 281 281 281
323 322 320 319 316 313 311 311 309 309 300 298 297 295 295 294 294 294 296 295 294 294 294 293 293 293 293 293 292 291 290 289 288 288 287 285 284 283 282 281 281 281 281
321 318 314 312 309 308 307 307 306 301 299 297 296 295 294 294 294 295 296 294 294 294 294 294 294 293 293 292 291 291 290 288 286 286 286 284 283 282 281 281 281 281 280
316 313 311 310 308 306 305 303 302 299 298 296 295 295 294 295 295 297 296 294 294 294 294 293 293 293 293 292 291 290 289 287 286 285 285 284 283 282 281 281 281 281 280
312 310 309 308 306 304 301 299 298 298 297 296 295 295 294 298 298 297 294 294 294 294 293 293 293 293 292 292 290 289 287 286 286 285 284 284 283 282 281 281 280 280 280
309 308 306 305 304 302 300 299 298 296 296 295 295 294 296 297 298 297 294 293 293 293 293 293 293 293 292 291 289 288 286 286 285 285 284 283 283 281 280 280 280 281 281
306 305 304 303 302 300 299 298 297 296 294 294 296 297 296 296 298 294 294 292 292 292 293 293 292 291 291 289 290 287 286 285 284 284 283 283 282 280 280 280 280 280 280
302 301 302 301 300 298 297 296 295 295 297 297 296 296 296 297 296 294 294 292 292 292 292 292 291 290 289 288 288 287 286 285 283 282 282 282 281 280 280 280 280 280 280
298 298 298 298 297 297 297 297 297 296 296 296 296 296 297 297 295 292 291 290 291 291 291 291 290 290 289 290 287 286 285 284 282 282 281 281 279 279 280 281 281 280 280
297 297 297 297 297 297 297 297 297 297 297 297 297 297 295 293 292 291 290 290 290 290 291 291 291 289 289 289 287 286 285 285 283 282 281 281 280 280 280 280 281 280 280
298 298 298 298 298 298 297 297 297 296 295 294 292 292 291 291 291 290 290 290 289 290 289 289 289 290 288 288 287 285 285 285 283 282 282 281 281 281 281 281 280 280 279
297 297 296 295 295 295 295 293 292 291 291 291 290 290 290 290 290 290 290 290 290 289 289 289 289 290 289 288 287 285 285 284 283 282 282 282 282 282 281 281 280 280 279
291 290 290 290 290 290 290 290 290 290 290 290 290 290 290 289 289 289 289 289 289 289 289 290 289 289 288 288 288 287 285 283 283 283 283 282 282 282 281 281 280 279 278
290 289 288 288 288 287 287 287 287 287 287 287 287 287 287 287 287 288 287 287 288 287 288 288 289 289 288 287 286 286 284 284 284 284 283 283 282 281 281 281 280 280 279
286 285 285 284 284 284 283 283 283 283 283 283 284 283 283 283 282 281 282 282 283 284 286 287 287 286 287 286 286 285 285 284 283 283 283 283 282 281 281 281 280 279 279
284 283 282 282 281 281 281 281 280 279 279 279 279 279 279 279 278 278 279 280 281 282 283 284 287 287 287 287 285 285 284 284 284 283 283 282 282 282 281 281 280 279 280
281 280 280 280 280 279 279 279 279 279 278 277 277 277 277 276 276 276 277 277 280 282 284 285 286 287 287 286 285 285 285 284 283 283 282 282 282 282 281 281 281 280 280
279 277 278 278 277 277 277 277 277 277 276 276 276 275 274 273 274 275 275 275 276 276 278 280 284 285 287 287 286 285 285 285 283 283 282 282 282 282 281 281 281 281 280
277 276 276 276 275 275 275 275 275 274 274 274 274 273 272 271 272 273 273 273 274 274 275 275 276 277 284 286 286 284 284 284 284 282 282 282 282 281 281 281 281 280 279
274 273 273 274 274 273 273 273 273 273 272 272 272 271 270 270 271 271 271 271 272 272 272 273 274 275 275 285 285 285 284 283 283 282 282 282 281 281 281 281 281 281 279
273 272 271 272 272 271 270 271 270 270 270 270 269 269 266 268 269 269 270 270 270 270 270 271 271 272 274 279 286 285 284 283 283 282 281 281 281 280 280 281 282 281 280
271 270 270 270 269 269 268 268 268 268 267 268 267 267 266 267 267 268 268 267 267 268 268 268 269 270 272 273 276 284 283 282 282 282 281 280 280 280 280 281 281 281 280
269 268 268 268 267 266 266 266 266 266 266 266 265 265 265 266 265 266 266 265 265 266 266 266 267 268 269 272 273 276 283 283 283 283 282 281 280 280 280 280 281 280 280
268 267 267 266 265 264 264 264 264 264 263 264 263 263 264 264 263 264 264 264 263 264 264 265 266 267 269 270 273 274 276 281 283 282 282 281 280 280 280 281 281 280 280
267 266 265 264 264 263 262 262 262 262 262 262 262 262 262 262 262 262 262 262 262 262 264 264 266 266 269 270 272 273 275 278 281 282 282 281 280 281 281 281 280 280 279
266 265 265 264 263 262 262 261 261 261 260 261 261 260 260 261 261 261 261 261 261 262 263 264 265 267 269 270 272 273 274 275 278 280 281 281 281 281 280 280 280 279 278

GFSGL_925_thetae_030.txt.gz
Theta_e
331 330 329 328 322 318 316 314 312 311 308 303 302 300 300 297 302 300 299 299 299 299 299 297 297 296 295 295 295 294 294 294 294 293 292 291 290 288 287 286 285 284 284
330 329 329 325 322 320 319 316 313 311 305 302 301 301 297 301 300 298 297 297 298 298 297 297 296 295 295 295 295 295 294 293 293 293 292 290 290 288 287 286 285 284 284
327 324 324 323 320 318 315 312 310 306 304 302 301 298 299 297 297 296 297 298 299 297 297 297 296 296 296 296 295 295 294 293 292 291 291 290 289 287 286 285 284 284 284
322 322 321 319 318 317 315 311 308 305 302 300 298 297 297 297 296 296 298 297 299 297 296 296 296 296 296 296 296 295 294 293 293 291 290 289 288 287 286 285 284 284 284
319 319 318 317 315 314 312 311 308 305 301 298 297 296 297 296 298 298 298 297 298 296 296 296 296 296 296 295 295 295 294 293 292 291 290 289 288 287 286 285 284 284 284
315 314 313 312 310 308 306 302 300 298 297 297 296 296 296 298 297 296 297 297 296 296 296 296 296 296 295 294 293 293 293 293 292 291 290 288 287 286 285 284 284 284 285
311 310 309 308 306 304 302 299 297 296 296 295 296 297 298 296 296 296 297 296 295 296 295 295 295 294 294 294 293 292 291 290 290 289 289 288 287 286 285 284 284 284 284
307 306 306 305 303 301 300 298 296 296 296 297 297 296 296 297 297 296 297 295 295 294 294 293 293 293 293 294 293 292 290 290 288 286 286 286 285 285 284 283 283 283 283
304 303 303 302 302 301 300 300 299 298 298 298 297 297 297 298 296 296 295 293 293 292 292 292 292 292 292 293 292 292 292 291 289 287 286 285 284 283 282 282 283 283 284
302 302 301 301 301 301 300 300 299 299 299 298 297 297 297 296 295 294 292 291 292 292 292 292 292 292 291 292 291 291 291 291 290 287 284 283 282 282 281 281 282 283 284
301 300 300 300 300 299 299 297 297 296 296 295 295 294 294 293 292 291 290 290 291 291 291 291 292 291 291 290 290 289 290 290 289 287 286 285 285 284 283 283 283 283 283
299 298 297 296 295 295 295 294 293 293 293 293 293 293 293 293 292 291 289 288 288 288 289 291 291 291 291 290 288 288 288 288 288 287 286 286 285 284 284 284 283 283 283
294 293 293 292 292 292 293 293 293 292 292 292 291 290 290 289 288 287 286 284 284 283 285 286 288 288 288 288 288 287 287 287 287 287 287 287 286 285 285 284 283 283 282
292 292 291 290 290 289 289 288 288 287 287 286 286 286 285 285 284 283 281 281 281 282 282 283 283 283 285 288 288 288 287 288 288 287 287 287 286 286 285 284 283 283 283
290 288 288 287 286 286 285 284 283 283 281 282 282 282 282 282 281 278 278 279 279 279 279 281 283 284 285 287 288 288 289 288 288 288 287 287 287 285 285 284 284 283 283
287 286 284 285 284 284 283 283 281 280 278 278 278 278 278 278 276 276 276 277 277 278 279 283 285 285 285 286 286 288 289 288 288 287 287 287 286 285 285 284 284 283 283
284 283 283 283 282 282 282 282 282 281 279 278 277 276 276 274 274 274 275 275 277 277 279 280 280 281 282 283 285 287 288 288 287 287 287 286 286 285 284 285 284 283 283
281 280 282 281 281 280 280 280 280 279 279 279 277 275 274 273 273 274 274 275 277 277 277 277 277 277 278 279 281 281 288 288 287 286 286 286 286 285 285 284 284 284 283
280 279 279 279 278 277 278 278 278 278 277 277 276 276 274 272 272 274 274 275 274 275 275 275 275 275 276 276 277 279 281 287 287 287 286 285 285 285 285 285 284 283 283
277 275 276 277 277 277 276 276 276 276 276 275 275 274 272 271 273 274 273 273 273 273 272 273 273 273 274 274 275 277 277 286 286 286 285 284 284 284 285 285 284 284 283
277 276 274 276 275 275 274 275 274 274 274 273 273 272 268 269 272 272 272 272 271 271 270 271 271 271 272 273 273 274 277 280 286 286 285 284 284 284 284 284 284 283 283
274 274 274 273 273 273 272 272 272 272 272 272 272 271 269 270 271 270 270 270 269 269 269 269 269 270 271 271 271 271 274 276 285 285 285 284 284 284 284 284 284 283 283
273 273 272 272 271 270 271 271 270 270 270 270 270 270 269 269 269 269 268 268 268 267 267 267 268 268 269 270 269 270 272 274 275 279 284 284 284 284 283 284 283 283 283
271 271 271 270 270 269 269 269 269 268 268 268 268 268 268 268 267 267 267 267 266 266 266 266 266 266 267 268 268 269 270 272 273 277 284 284 284 283 283 283 283 283 283
270 270 270 269 269 268 268 268 268 268 267 267 267 267 267 266 266 266 266 265 265 265 264 264 266 266 266 266 267 269 271 272 274 274 281 283 283 282 283 283 283 283 283
269 269 268 268 268 267 267 267 267 266 266 266 265 266 266 265 265 265 264 264 264 263 264 265 265 265 266 267 268 269 270 271 274 275 278 282 283 282 282 283 283 283 283

GFSGL_925_thetae_033.txt.gz
Theta_e
333 333 333 331 330 328 325 320 317 314 312 310 308 306 304 302 300 299 301 302 302 302 301 301 301 301 299 298 297 297 296 296 296 295 295 294 294 293 292 291 290 288 287
333 333 332 330 329 326 322 319 317 315 315 312 309 305 302 301 301 301 302 300 300 300 300 301 301 300 298 297 297 297 296 296 296 296 295 294 293 292 291 291 289 288 287
331 332 332 328 325 323 321 320 318 316 313 311 306 302 301 301 300 302 300 299 300 298 299 301 300 299 298 297 297 297 297 296 296 295 295 294 293 292 291 290 289 288 287
330 328 328 326 323 321 319 316 313 311 309 305 302 301 301 299 300 298 298 299 298 298 299 300 299 298 298 298 297 297 297 297 296 295 295 294 293 292 291 289 288 288 287
325 325 324 322 321 319 317 315 312 308 305 303 300 300 299 299 298 298 299 297 297 298 299 299 298 298 297 297 297 297 297 297 296 296 295 294 292 292 291 289 288 287 286
320 319 318 317 316 314 312 309 307 306 303 300 298 299 298 297 298 297 297 298 297 298 298 298 298 297 297 296 296 296 296 296 296 296 295 294 292 291 290 289 288 287 286
315 314 313 312 310 308 306 304 303 301 300 299 298 297 297 298 297 297 297 297 297 296 296 296 297 297 296 295 295 295 295 295 294 293 295 294 293 291 289 288 287 286 286
311 311 310 308 307 305 304 302 299 298 298 298 298 298 299 299 297 297 297 297 296 295 296 296 295 294 294 294 294 294 295 295 294 292 290 292 292 290 288 287 287 285 285
308 307 307 306 305 304 303 303 302 301 301 301 300 299 298 298 298 297 296 295 295 295 294 294 294 294 293 293 293 293 294 294 294 292 291 290 289 288 286 286 285 284 286
306 306 305 305 304 303 302 301 300 300 300 299 298 298 297 297 297 295 293 293 292 292 292 293 293 293 293 292 292 292 292 294 293 293 291 289 288 286 285 284 284 284 285
304 304 303 302 301 300 300 299 298 298 298 297 297 296 295 294 294 292 291 290 289 287 288 289 290 290 290 290 290 290 291 291 293 293 292 289 287 287 285 285 284 283 284
301 301 300 299 298 298 298 296 295 295 295 295 295 294 294 294 291 289 286 285 284 283 284 285 285 285 284 284 284 287 288 289 289 291 292 291 290 288 287 286 285 284 284
298 297 295 295 295 295 295 294 294 294 293 292 291 290 290 289 288 286 284 281 281 281 282 282 281 281 281 283 284 284 286 288 288 289 290 290 289 288 288 287 286 286 285
296 295 294 293 292 292 291 290 290 289 288 288 287 287 286 286 285 282 280 280 280 280 280 279 279 281 284 285 286 286 286 287 288 289 289 290 290 289 288 287 287 286 285
293 292 291 290 289 288 287 286 286 283 282 283 284 283 283 282 281 277 277 277 278 278 277 279 281 283 282 283 284 285 286 287 287 288 289 289 290 289 288 287 286 286 285
290 290 289 288 287 287 286 285 283 282 280 278 278 278 278 278 276 275 276 276 276 277 278 280 281 280 280 280 280 281 283 284 284 287 289 289 289 288 288 287 286 286 285
289 287 285 286 286 285 285 285 285 282 281 280 278 277 276 275 274 274 275 275 276 278 279 279 279 278 278 278 278 279 279 280 281 283 288 289 288 288 287 287 286 286 286
284 284 285 285 284 284 283 283 283 282 282 282 279 278 276 275 274 274 275 275 278 277 277 277 277 277 276 276 276 277 277 278 279 280 287 287 288 288 287 287 286 286 285
284 283 283 283 281 280 281 281 281 280 280 280 279 279 278 274 273 275 276 276 276 276 275 275 275 275 275 274 275 275 276 276 277 280 281 287 287 287 287 287 286 286 285
279 278 280 280 280 279 279 279 279 279 279 278 278 278 276 273 274 276 275 275 275 274 273 273 273 273 273 273 273 274 275 274 275 278 278 286 287 287 287 287 286 286 285
280 278 277 279 278 278 277 277 277 277 277 276 276 275 272 271 273 274 274 274 273 272 272 272 271 271 271 272 272 272 273 273 274 275 275 286 286 286 286 286 286 285 285
277 277 277 276 276 276 275 275 275 275 275 275 275 274 272 272 273 273 272 272 271 271 271 270 270 270 270 270 270 271 271 272 273 273 273 276 285 285 285 286 286 285 285
275 275 275 275 274 273 274 274 274 274 273 273 273 273 273 272 272 271 271 270 270 269 269 269 268 268 268 269 269 269 270 271 271 271 272 275 277 285 285 285 285 285 284
274 274 274 273 273 272 273 272 273 272 272 272 272 272 272 271 270 270 269 269 268 268 268 267 266 267 268 267 268 268 270 270 270 270 272 273 275 285 285 285 285 285 284
273 273 273 273 273 272 272 272 272 271 271 271 271 270 270 270 269 269 268 268 267 267 266 265 266 267 267 267 268 269 270 269 270 271 271 273 276 284 284 284 285 284 284
273 272 272 272 272 271 271 270 270 270 269 269 269 268 268 268 268 267 267 266 266 264 264 265 265 266 266 267 268 269 269 269 270 271 271 274 277 281 284 284 284 284 284

GFSGL_925_thetae_036.txt.gz
Theta_e
332 333 332 330 329 323 327 330 325 321 319 315 313 311 309 306 304 304 303 302 302 303 302 302 301 301 301 302 300 298 298 297 296 296 296 296 295 295 294 293 292 291 290
335 334 332 331 331 331 330 327 324 321 317 314 311 309 307 305 304 303 301 301 302 302 301 300 300 301 301 301 300 298 297 297 297 296 296 296 295 295 294 292 292 291 290
335 334 332 332 331 329 326 323 321 319 316 314 312 309 306 304 303 301 301 300 301 301 300 299 299 300 301 300 299 298 298 297 297 297 297 296 295 295 294 292 292 291 289
332 332 330 327 325 325 322 321 319 317 316 314 312 308 305 303 302 301 301 302 300 299 298 299 299 300 300 299 299 299 298 298 297 297 297 296 296 295 294 292 291 290 289
329 327 325 323 322 321 319 318 315 312 311 309 306 304 303 301 301 301 300 299 299 298 298 298 299 299 299 298 298 297 297 297 297 297 296 296 296 295 293 292 291 290 289
325 323 322 321 320 317 316 314 312 308 306 303 302 301 300 300 300 299 298 298 298 298 297 298 297 297 297 297 298 297 297 296 296 296 296 296 295 295 294 292 291 289 287
318 317 316 315 312 310 308 307 306 304 302 300 299 299 298 298 298 298 298 298 298 297 296 297 296 296 297 297 297 296 295 295 295 295 295 295 294 295 295 292 290 288 288
314 313 312 310 308 306 304 302 301 300 299 299 298 298 298 298 297 297 297 297 296 297 296 295 296 296 295 294 294 293 293 293 293 294 294 294 294 294 294 292 290 288 287
311 310 308 307 306 304 302 301 301 300 300 300 299 299 299 298 298 297 297 296 295 294 293 293 293 292 292 291 291 290 290 291 292 292 292 293 294 293 292 291 288 287 285
308 308 307 306 305 304 302 302 301 300 300 299 299 299 298 298 298 297 294 292 292 291 290 289 288 287 287 287 286 285 285 286 288 289 290 291 292 292 291 290 289 286 285
307 306 305 303 302 301 301 301 300 299 298 297 297 297 297 294 292 292 290 288 286 284 284 284 284 284 283 282 281 281 282 282 284 285 286 289 291 290 289 289 288 286 284
304 303 302 301 301 300 299 299 299 297 296 296 295 295 294 291 289 287 286 284 283 281 281 281 282 281 280 281 282 284 284 284 284 285 285 288 289 290 289 287 287 286 285
302 301 299 298 298 297 296 295 295 294 293 291 290 290 289 288 287 285 285 282 279 279 280 280 279 278 281 282 283 283 284 285 285 285 286 286 287 289 289 287 286 286 286
298 297 296 294 294 293 291 291 290 289 288 288 288 287 286 286 284 283 280 277 277 278 277 277 278 280 282 281 281 280 280 281 282 284 285 286 287 288 289 288 287 286 285
296 294 292 291 290 289 287 287 287 283 284 285 284 283 283 282 279 277 276 276 277 277 277 278 279 281 280 279 278 278 278 279 279 280 280 281 282 287 288 289 288 287 287
293 291 290 289 289 288 286 284 283 282 281 280 279 278 278 278 277 276 276 276 276 277 277 278 279 279 278 278 277 277 277 277 277 278 278 280 281 283 288 289 288 287 286
289 288 288 287 287 286 286 286 283 281 281 281 280 279 278 277 276 275 275 276 277 278 278 278 277 277 276 276 276 275 275 275 276 276 276 277 280 284 287 288 287 287 286
286 287 286 285 285 285 284 283 283 283 283 282 280 279 277 276 275 275 276 276 277 276 276 276 275 275 275 274 274 274 274 274 275 274 275 277 278 278 287 288 287 286 286
284 284 284 283 282 282 281 281 281 281 281 281 280 279 277 275 275 275 277 276 275 275 275 274 273 273 273 272 272 272 273 273 273 273 274 275 276 275 285 288 287 286 286
281 281 282 281 280 280 280 280 280 279 279 279 278 278 277 275 273 274 275 275 274 274 273 273 272 272 271 271 271 271 271 272 271 272 273 274 273 274 279 287 287 286 286
280 278 279 279 279 278 278 278 277 277 277 277 277 276 275 273 272 274 274 273 273 272 271 271 270 270 270 270 269 269 270 270 270 271 272 272 272 273 275 287 287 286 286
278 278 277 277 277 277 276 275 276 276 276 276 275 274 274 273 274 273 272 272 271 270 270 269 269 269 268 268 268 269 268 269 269 271 270 270 271 273 275 282 286 286 286
276 276 276 276 275 274 275 275 275 274 274 273 273 273 273 273 272 271 271 270 270 269 268 268 267 267 266 267 267 267 268 268 270 270 269 270 271 272 273 275 285 286 285
275 275 275 275 274 273 273 273 272 273 273 273 272 272 272 271 271 270 270 269 268 267 267 267 266 265 266 266 266 267 268 269 269 269 270 271 271 272 273 276 284 286 285
274 274 274 274 273 273 273 273 272 272 272 271 271 270 270 269 269 269 268 268 267 266 266 265 265 265 265 265 266 267 268 268 269 270 270 271 272 272 274 277 285 285 285
273 273 273 272 272 272 272 271 271 270 270 269 269 268 268 268 267 267 266 266 266 264 264 263 263 264 265 266 266 267 267 268 269 270 271 271 272 273 274 277 284 285 285

GFSGL_925_thetae_039.txt.gz
Theta_e
328 327 328 329 330 329 329 327 324 324 326 323 319 318 316 315 315 311 308 306 304 304 304 303 302 302 301 302 301 302 300 298 296 296 296 296 296 296 295 294 293 293 292
321 329 329 329 328 328 328 327 325 325 322 321 320 318 315 313 311 308 306 304 303 303 303 302 301 301 300 300 301 301 300 300 297 296 297 297 296 296 296 295 294 293 292
324 325 330 330 329 324 326 324 324 323 321 318 316 313 311 310 307 305 305 304 302 302 302 301 301 300 299 299 301 300 299 299 298 297 296 297 297 297 296 296 295 293 292
331 331 330 330 329 327 325 323 320 319 318 316 313 311 310 308 306 305 303 301 301 302 301 300 299 299 299 299 299 298 298 298 298 298 297 297 296 296 296 295 294 294 293
330 329 327 326 325 323 321 320 319 316 315 315 314 310 308 306 304 303 301 301 301 300 300 299 298 298 298 298 297 297 297 296 296 297 296 296 296 295 295 295 294 294 293
326 324 323 322 321 319 318 317 313 311 310 309 306 306 305 304 302 301 301 301 300 298 298 298 297 297 296 296 296 297 297 297 296 295 294 294 294 294 294 294 293 291 290
321 320 319 318 317 316 315 312 310 308 305 303 302 302 301 301 301 300 300 299 298 298 298 297 297 296 295 294 294 292 292 292 292 291 292 292 292 292 293 293 292 292 291
315 313 312 311 309 308 307 306 305 303 301 300 299 299 299 298 298 298 298 297 297 297 296 295 294 292 291 289 289 289 289 289 288 287 288 289 291 291 291 291 292 292 290
312 311 309 308 305 303 302 302 301 299 299 298 298 298 298 297 297 297 297 297 296 294 292 292 290 288 286 286 284 283 281 280 281 282 283 283 282 282 283 288 291 289 289
309 308 306 305 303 301 300 299 299 299 299 298 298 298 298 298 297 297 296 293 292 291 289 287 284 282 282 282 281 281 281 283 283 284 284 285 285 285 285 286 289 290 289
307 306 304 304 303 302 301 301 300 300 299 299 298 297 296 296 293 292 290 289 287 285 283 281 280 281 280 280 281 282 283 283 283 284 284 284 284 284 285 286 288 289 289
305 304 303 302 301 301 301 300 299 298 297 296 294 293 291 289 287 287 286 285 283 280 279 279 279 278 279 281 281 281 281 280 280 281 281 283 284 284 285 286 287 288 287
302 301 301 301 300 299 299 298 298 297 295 293 292 288 285 284 285 285 284 282 278 277 277 277 277 279 280 280 279 279 278 278 278 278 279 279 279 279 281 283 287 286 286
301 300 299 298 296 293 293 293 291 290 289 289 287 286 284 283 283 282 280 277 277 277 277 277 278 279 279 278 277 277 277 277 276 276 277 277 277 278 279 281 283 287 285
296 295 293 292 290 289 289 288 288 286 287 287 285 285 284 282 280 278 277 277 277 277 277 278 278 278 277 276 276 276 275 275 275 275 275 275 275 276 277 280 281 287 285
292 291 290 289 287 287 286 283 282 282 281 280 280 279 278 278 277 277 276 277 277 278 278 277 276 276 275 275 275 274 273 273 273 274 274 274 274 275 277 277 279 286 288
289 288 287 287 287 286 284 283 281 280 281 281 281 280 278 278 277 277 276 277 277 277 276 275 275 274 273 273 273 272 272 272 272 272 272 272 273 274 274 276 277 287 287
287 286 285 285 284 284 283 283 283 282 282 281 280 279 277 276 276 276 277 277 276 275 275 274 273 273 272 272 271 271 270 270 271 271 271 271 272 273 273 274 275 282 286
284 284 283 283 282 282 282 281 281 281 281 280 280 278 276 276 276 275 276 275 274 274 273 272 272 271 271 270 269 269 269 269 269 269 269 270 271 271 272 272 274 277 286
282 282 281 281 280 280 280 280 279 279 279 278 278 277 276 275 274 274 274 273 273 272 271 271 270 269 269 269 268 268 268 268 268 268 269 269 271 270 271 272 273 273 285
279 279 280 279 279 278 278 277 277 277 277 277 276 275 275 274 273 273 273 272 272 271 270 270 269 268 268 267 267 267 267 267 267 267 268 269 269 270 271 272 273 274 284
278 278 278 277 277 277 276 275 276 275 275 275 274 274 273 273 273 272 272 271 270 270 269 268 267 267 266 266 266 267 266 266 267 267 269 268 268 270 271 271 272 274 281
276 276 276 275 275 275 275 275 274 274 274 273 273 273 272 272 271 271 270 270 269 268 267 267 266 266 265 265 265 265 266 266 267 268 268 268 269 270 271 272 272 274 277
275 275 275 275 274 274 273 273 273 273 272 272 271 271 270 269 269 269 268 268 267 266 266 266 265 264 264 264 265 265 266 266 267 267 268 268 269 270 271 272 273 275 276
274 273 273 273 273 273 273 272 272 271 271 270 269 269 268 268 267 267 266 266 265 265 265 264 263 263 263 264 265 265 266 265 266 267 268 269 269 271 271 272 273 275 277
273 272 272 272 272 271 271 271 270 269 269 268 268 267 267 266 266 265 265 264 264 264 263 263 262 262 262 263 264 264 264 265 266 267 268 268 269 270 271 272 274 275 278

GFSGL_925_thetae_045.txt.gz
Theta_e
316 317 318 318 319 319 320 320 322 323 322 322 322 324 324 323 323 320 319 318 315 312 311 311 309 308 307 305 304 302 301 301 299 300 299 300 300 299 298 297 296 295 295
319 319 320 320 320 321 321 322 323 323 324 323 323 323 318 317 319 319 318 314 312 311 311 309 307 305 305 303 302 301 301 300 299 297 297 297 297 298 298 297 297 297 297
321 321 322 322 323 323 323 323 323 323 323 324 323 324 320 315 317 317 314 313 313 312 309 307 305 304 302 301 301 300 299 299 298 296 295 296 296 296 296 296 296 296 295
323 323 323 324 324 324 324 324 323 323 323 324 322 319 318 315 316 313 313 312 310 309 307 305 304 303 301 300 299 298 297 296 296 295 295 295 294 294 294 294 294 293 293
324 325 324 324 325 325 325 326 324 323 323 323 322 319 318 316 314 312 312 310 307 305 303 303 302 300 298 297 297 297 295 294 293 291 291 290 290 290 290 290 290 290 290
324 325 325 325 325 326 326 326 325 323 322 321 318 317 313 313 314 311 309 306 304 303 302 301 299 298 297 297 296 294 294 291 289 287 285 285 284 284 284 284 285 286 286
324 324 323 323 323 323 322 321 320 317 316 315 314 313 312 311 309 308 306 305 303 302 302 299 297 296 295 294 292 292 291 288 285 281 281 282 282 282 283 283 283 283 284
324 324 323 322 320 318 317 315 314 314 314 313 311 311 310 307 306 305 303 302 301 300 298 297 296 294 292 292 292 290 287 283 281 282 282 282 282 282 282 283 283 283 283
319 319 318 317 313 312 312 312 312 312 310 308 308 307 305 304 303 302 301 300 297 295 295 294 292 289 290 291 287 282 280 281 281 281 280 279 279 279 279 281 282 283 283
315 314 315 315 314 313 312 309 307 306 304 304 302 301 300 300 300 299 299 297 295 294 290 288 285 289 287 281 280 281 281 281 280 279 277 277 277 277 278 280 279 278 278
313 313 312 313 314 312 308 305 302 300 299 297 296 296 297 296 296 296 296 296 295 290 286 285 283 280 278 279 281 281 280 279 277 276 276 275 276 276 276 276 276 276 276
309 308 308 308 307 306 304 299 298 297 294 291 291 290 290 291 292 293 292 290 288 286 283 280 278 278 279 280 280 279 278 277 275 275 274 275 275 274 275 275 274 275 275
304 302 302 301 301 300 299 297 296 294 290 288 287 285 284 285 285 285 287 286 284 281 279 278 278 279 279 279 278 277 276 275 274 273 274 274 273 273 273 273 273 274 274
300 299 298 298 297 297 297 296 295 292 289 287 285 283 282 281 281 281 281 279 278 278 277 278 278 278 277 276 275 275 274 273 272 272 272 272 272 272 271 272 272 273 273
295 294 294 295 295 293 291 291 292 291 292 290 287 285 282 280 279 278 278 277 278 278 278 277 276 276 275 274 274 273 273 272 271 271 270 270 270 270 270 270 271 272 272
291 289 289 288 286 285 284 282 284 286 287 287 286 285 281 279 278 277 277 278 278 277 277 275 274 273 273 273 272 272 271 270 270 269 269 269 268 268 269 269 270 271 271
289 287 285 284 283 282 282 281 281 281 281 280 279 279 278 278 278 278 277 277 277 276 275 274 273 272 272 272 271 270 270 269 268 267 268 267 267 267 267 268 270 270 270
285 285 284 284 283 283 282 282 282 281 280 280 280 279 278 278 277 277 277 277 276 275 274 273 272 271 271 270 269 269 268 267 267 267 267 266 267 266 266 268 268 269 269
283 283 283 283 283 283 282 282 282 282 281 280 279 278 277 277 276 275 275 275 274 274 273 272 271 270 269 268 267 267 266 266 266 266 266 266 266 266 266 267 267 268 269
283 282 282 282 281 281 281 280 280 279 279 279 278 277 276 275 274 274 274 273 273 272 271 270 269 268 267 267 266 266 265 265 265 265 266 266 266 265 266 266 267 268 269
280 280 280 279 278 278 277 277 277 277 276 276 275 275 274 274 273 273 272 272 271 270 269 269 268 267 266 265 265 265 264 264 264 265 265 265 265 265 266 266 267 268 269
278 277 277 276 276 276 275 275 275 274 274 274 273 273 272 272 271 271 270 270 269 268 267 267 266 265 265 264 264 263 263 264 264 264 264 264 265 265 265 266 266 267 269
276 275 274 274 274 274 273 273 273 273 272 271 271 270 269 269 268 268 267 267 267 266 266 265 264 264 264 263 263 262 262 263 263 263 263 264 264 264 264 265 266 267 269
274 273 273 272 272 272 272 271 271 270 270 269 269 268 268 267 267 266 266 265 265 264 264 263 263 262 262 262 261 262 262 262 262 263 263 263 264 264 264 264 265 268 269
272 271 271 270 270 270 269 269 268 268 268 267 267 267 266 266 265 265 264 264 263 262 262 262 261 261 260 260 260 261 261 261 262 263 263 263 264 264 264 265 266 267 268
269 269 268 268 268 268 267 267 266 266 266 266 266 265 265 264 264 263 262 262 261 261 260 260 259 259 259 259 260 260 260 261 262 262 263 263 264 264 264 264 265 266 267

GFSGL_925_thetae_048.txt.gz
Theta_e
314 314 314 315 315 315 315 315 315 315 314 315 317 319 321 321 322 322 322 320 319 316 316 315 312 310 310 310 308 307 304 302 300 300 300 300 300 300 299 298 298 297 297
313 313 314 315 316 316 316 315 317 317 318 317 319 320 321 321 322 322 321 319 317 315 316 313 310 310 309 308 306 304 302 301 300 298 298 297 298 298 297 296 296 296 295
314 314 315 315 316 317 318 317 318 318 318 318 319 320 321 322 321 319 317 316 316 315 311 309 309 308 306 305 303 302 301 300 298 296 296 296 296 296 294 294 293 293 292
316 316 316 317 317 317 318 318 318 319 320 320 321 321 321 321 322 321 318 314 313 311 310 310 309 307 306 303 301 300 299 298 296 295 295 294 293 292 290 289 288 287 285
319 318 318 319 319 319 319 319 320 321 322 322 322 321 321 320 320 319 316 314 311 309 308 307 306 305 303 301 300 298 296 295 294 293 291 289 288 287 284 284 283 283 283
322 321 320 320 320 321 321 321 322 322 322 322 322 322 320 319 318 316 316 312 309 308 306 303 302 301 299 298 297 296 295 293 291 289 287 284 283 282 282 282 282 282 283
322 322 322 322 322 322 322 323 323 322 322 322 322 320 317 316 316 314 311 310 308 305 303 301 299 298 297 296 294 292 291 290 288 284 282 281 281 282 281 281 281 281 281
321 322 323 323 322 322 322 321 320 320 319 319 317 314 313 312 309 308 307 305 304 302 300 299 297 295 293 292 290 290 287 284 282 281 282 281 281 280 280 281 281 281 281
321 321 322 320 319 318 318 317 316 315 311 310 309 309 309 307 305 304 304 302 300 297 296 295 294 291 289 290 288 289 285 281 281 281 280 279 278 277 277 279 280 280 278
320 318 319 320 319 315 313 310 308 307 305 304 303 303 303 301 301 301 301 299 296 293 291 289 289 288 286 284 289 282 281 281 280 279 278 277 276 276 276 276 277 276 277
316 316 316 315 314 311 307 305 303 302 300 297 297 296 297 297 297 299 298 297 295 291 288 284 282 280 280 281 280 280 280 279 278 277 276 276 276 275 275 275 275 275 275
312 311 308 308 306 304 303 299 298 297 294 292 293 291 291 292 294 295 294 294 291 291 286 282 281 279 279 280 280 279 279 278 276 275 274 274 275 274 274 274 274 274 274
306 303 303 302 301 299 299 295 294 293 291 289 288 286 285 287 288 289 288 288 285 285 282 280 278 279 279 279 278 277 276 275 274 273 273 273 273 272 273 272 272 273 273
299 298 298 298 296 296 296 294 291 290 289 288 286 284 283 283 283 283 282 281 280 279 278 278 278 278 278 277 276 275 274 273 273 272 272 271 271 271 271 271 271 271 271
296 295 294 294 294 292 291 291 290 290 291 290 288 285 283 281 280 280 280 279 278 278 278 278 277 276 275 275 274 273 273 272 271 271 270 270 270 269 269 269 270 270 271
291 290 290 289 288 287 286 285 286 288 289 289 286 286 282 280 279 278 278 278 278 278 277 276 275 274 273 273 273 272 271 270 270 269 269 268 268 268 268 268 268 269 269
287 287 285 285 284 283 282 282 281 281 282 283 282 281 280 278 278 278 278 278 277 276 276 275 274 273 272 272 272 271 270 269 268 267 267 267 266 266 266 267 267 268 268
284 284 284 283 283 282 282 282 282 281 280 280 280 280 279 278 278 278 278 277 276 276 275 274 273 272 271 270 270 269 268 267 266 266 266 266 266 265 265 266 266 267 267
284 283 283 283 283 283 283 282 282 281 280 279 278 278 277 277 276 276 276 275 275 274 273 272 272 270 269 269 268 267 266 266 266 265 265 265 266 265 264 265 266 266 266
282 282 282 282 281 281 280 280 280 280 279 279 277 276 275 275 274 274 274 273 273 272 271 271 270 269 268 267 266 265 265 265 264 264 264 265 265 265 264 264 265 266 266
279 279 279 278 278 278 277 277 277 276 276 275 274 274 274 273 273 272 272 271 270 270 269 268 267 267 266 265 264 264 263 263 263 263 264 264 264 264 264 264 264 265 266
277 276 276 276 275 275 275 275 274 274 274 273 272 271 271 271 270 269 269 268 268 267 267 266 265 265 264 263 263 262 262 262 262 263 263 263 263 263 263 263 264 264 265
275 274 274 273 273 273 272 272 272 271 271 270 270 269 268 268 267 267 266 266 265 265 264 264 263 263 262 262 262 261 261 261 261 261 262 262 262 262 263 263 263 264 265
273 272 272 271 271 270 270 269 269 269 268 268 267 267 267 266 266 265 264 264 263 263 262 262 261 261 260 260 260 260 260 260 260 260 261 261 261 262 262 263 263 264 265
271 270 270 269 269 268 268 267 267 266 266 266 266 266 265 264 264 263 263 262 262 261 261 260 260 259 259 259 259 259 259 259 259 260 261 261 261 262 262 263 263 263 264
268 268 267 267 266 266 265 265 265 264 264 264 264 264 263 263 262 262 261 261 260 260 260 259 259 259 259 258 258 258 259 259 259 260 260 261 261 262 262 262 263 263 264

GFSGL_925_thetae_051.txt.gz
Theta_e
317 317 317 316 316 315 315 316 317 316 315 314 314 316 316 317 317 318 319 320 321 320 319 318 318 315 317 313 310 309 308 309 306 302 302 301 302 301 300 299 298 298 297
316 316 316 316 315 315 315 315 315 314 314 315 316 316 317 318 317 317 319 321 321 320 319 319 317 315 313 311 309 308 308 306 303 301 300 300 299 299 298 297 296 295 296
316 316 315 315 315 315 315 315 315 315 316 316 317 317 317 317 318 318 320 320 319 320 319 315 315 314 310 308 308 306 305 303 301 300 297 297 297 296 296 295 294 294 293
316 315 315 315 316 316 316 316 316 316 316 317 317 318 318 318 319 319 318 319 319 317 314 314 313 310 308 308 306 304 302 300 298 297 296 295 295 295 292 292 291 289 287
316 316 316 316 315 316 317 317 317 317 317 318 318 319 320 320 319 320 319 318 317 316 313 313 309 308 307 307 305 302 300 298 295 294 293 291 292 291 290 288 286 285 285
318 317 317 316 317 316 316 317 317 318 318 319 319 319 320 319 320 321 320 317 316 313 310 307 306 305 304 303 302 300 298 296 293 292 291 291 291 287 285 285 284 284 285
320 320 319 318 318 318 319 318 318 319 320 321 321 321 321 320 321 321 317 315 313 308 307 304 302 301 301 299 297 296 294 292 292 291 288 287 285 284 283 283 284 284 284
322 322 321 321 320 321 321 321 321 321 321 321 321 321 320 319 318 314 311 310 307 305 304 302 301 298 297 296 294 291 289 288 286 284 284 283 283 282 282 281 281 282 282
321 322 322 322 322 322 322 321 321 321 320 318 315 314 313 311 310 307 307 304 302 299 298 298 298 295 292 291 290 288 286 284 282 281 281 280 279 278 278 280 281 281 281
320 320 321 321 320 320 320 318 315 313 310 307 306 306 306 304 303 302 304 302 297 294 292 291 291 291 290 290 287 285 283 283 281 280 279 278 278 278 277 278 278 279 279
317 318 318 319 318 318 314 310 307 304 301 299 298 296 297 298 299 300 301 299 294 289 288 286 287 287 286 283 282 282 282 280 279 278 278 277 277 277 277 276 277 277 278
316 314 312 312 310 308 306 300 298 297 294 291 291 289 290 291 293 295 297 296 292 291 286 283 281 281 282 280 280 280 279 278 278 277 276 276 276 276 275 275 275 275 275
306 302 302 300 299 299 298 294 293 293 291 289 287 285 284 285 287 290 291 290 288 286 282 281 281 281 280 279 279 278 277 277 276 276 276 276 275 274 274 274 274 273 274
298 296 296 295 294 294 294 294 292 291 290 288 286 284 282 283 283 284 284 283 283 281 279 280 279 279 278 277 277 276 276 275 274 274 274 273 273 272 272 272 272 273 273
293 292 291 290 290 289 289 290 290 290 291 290 287 285 283 281 280 281 281 280 279 279 279 278 278 278 277 277 276 275 274 273 273 273 272 272 271 271 271 271 271 272 272
292 291 290 289 288 287 285 284 285 287 289 289 286 285 281 280 280 280 280 279 278 278 278 277 276 276 276 276 275 274 273 272 272 271 270 270 270 270 270 270 270 271 271
288 287 286 286 285 284 283 283 282 281 281 282 282 281 280 279 279 279 278 278 277 277 278 276 276 275 274 274 273 272 272 271 269 269 269 269 269 269 268 269 270 270 271
284 285 284 284 283 283 283 283 282 282 282 281 280 279 279 279 279 279 278 278 277 276 276 275 274 273 273 272 272 271 270 269 268 268 268 268 268 267 268 268 269 269 270
284 283 283 283 283 283 283 283 282 282 281 279 278 277 277 277 277 276 276 276 276 275 275 274 273 272 271 270 269 268 267 267 266 266 266 266 266 267 267 267 268 268 268
281 281 281 281 280 280 280 281 280 280 280 278 277 276 276 276 275 274 273 274 273 273 272 272 270 269 268 268 267 267 267 266 266 266 266 265 266 266 266 267 267 268 268
278 278 278 278 277 277 277 277 277 277 276 275 274 273 273 274 273 272 271 270 270 270 269 268 268 267 266 266 265 265 264 264 264 264 264 264 265 265 265 266 266 267 267
277 276 276 275 276 276 276 275 275 275 274 273 272 270 270 271 270 269 268 267 267 266 265 265 265 264 264 263 263 262 262 262 262 263 263 263 264 264 264 265 266 266 267
275 275 274 274 273 273 273 272 272 271 271 270 270 269 268 268 267 266 265 264 264 263 263 262 262 261 261 260 260 260 260 261 261 261 262 262 262 263 264 264 265 266 266
273 272 272 271 270 270 270 270 269 268 268 268 267 267 266 265 264 264 264 263 262 262 262 261 261 260 260 259 259 259 259 259 259 260 260 260 261 262 263 264 264 265 266
269 269 268 268 268 267 267 266 266 266 265 265 265 264 263 263 263 262 262 262 261 261 260 260 260 259 259 259 259 259 258 258 258 258 258 259 260 261 262 263 263 264 265
267 266 266 266 265 265 265 264 264 263 263 262 262 262 262 262 261 260 260 260 259 259 259 258 258 259 259 258 258 258 258 258 258 258 259 258 260 261 262 263 263 264 265

GFSGL_925_thetae_054.txt.gz
Theta_e
322 322 323 323 322 322 322 322 321 320 320 319 319 319 319 319 319 320 320 321 321 321 323 322 321 319 318 316 316 315 313 312 312 308 306 303 301 300 302 302 301 301 301
322 322 322 322 322 322 321 321 321 321 320 320 320 319 319 320 320 320 320 321 321 322 321 321 319 319 318 316 316 313 312 309 309 306 303 301 300 301 301 300 299 300 300
323 322 322 322 322 322 322 321 321 320 320 320 320 319 319 318 319 320 320 321 322 321 322 319 320 317 316 315 314 311 308 306 306 303 301 301 301 299 299 298 299 300 299
323 323 322 322 322 322 322 321 321 320 320 320 320 319 319 319 319 319 319 320 321 320 320 320 319 316 314 313 311 308 306 304 303 302 300 297 297 297 296 297 297 298 296
324 323 323 322 322 321 321 321 320 320 320 320 320 320 320 320 320 321 321 321 321 320 319 319 317 314 315 313 309 306 304 302 301 298 297 297 296 295 294 296 294 293 291
324 324 323 323 322 322 321 321 320 320 320 320 320 320 320 321 321 321 321 319 318 318 317 317 314 313 311 308 307 306 305 302 298 297 297 294 293 293 293 292 291 289 289
324 323 323 323 322 322 321 321 321 321 321 321 321 321 321 321 321 321 320 319 317 316 314 311 309 307 306 304 302 302 299 298 296 294 293 292 292 292 290 289 288 288 288
325 324 323 323 322 322 322 321 321 321 322 322 322 322 321 321 321 321 320 316 314 312 310 308 307 302 301 300 299 296 293 292 292 292 290 287 287 286 286 286 285 285 285
326 325 324 324 323 323 323 323 323 323 322 322 322 322 321 321 320 317 315 310 307 303 301 300 300 298 296 297 295 291 288 287 288 287 285 284 282 281 280 282 283 284 285
324 325 325 325 324 324 324 324 319 319 318 313 311 310 310 310 307 309 309 305 298 295 294 293 294 294 291 291 290 288 286 284 283 282 281 281 280 281 279 279 281 282 283
322 323 324 324 325 321 314 314 313 309 306 302 301 298 299 299 299 302 303 299 295 290 289 288 289 290 290 289 287 285 285 283 282 282 281 281 281 280 280 279 279 280 281
318 315 314 313 312 309 311 306 304 301 295 291 290 289 290 291 293 295 296 295 291 289 286 286 285 285 284 283 283 282 282 281 281 281 280 280 280 280 279 278 278 278 278
306 303 302 302 301 299 298 295 293 293 290 288 287 285 284 286 287 289 290 291 291 288 285 284 283 281 280 280 279 279 279 280 279 279 280 279 278 277 276 277 277 277 276
298 296 296 295 294 294 294 293 292 291 289 288 286 284 283 282 283 284 284 283 282 282 282 281 280 280 280 278 278 278 278 277 277 277 277 277 276 277 277 276 275 275 275
293 292 290 289 288 287 287 289 290 290 290 287 285 284 283 281 281 282 282 281 281 280 280 280 280 280 280 279 278 277 277 276 277 277 277 276 276 275 275 274 274 274 275
291 290 289 288 286 285 285 284 284 287 287 286 285 284 281 281 281 281 281 280 280 280 281 281 280 280 280 279 279 278 276 275 275 274 274 274 274 274 274 273 273 274 274
288 288 287 286 285 285 284 283 282 282 281 281 281 281 281 280 280 279 278 278 279 280 281 280 279 279 278 277 276 275 275 274 272 273 272 272 272 272 272 272 273 273 274
285 285 285 284 284 284 283 283 283 283 282 281 280 280 280 280 279 278 278 280 280 279 279 278 278 277 276 275 274 273 273 272 272 271 271 271 271 271 271 272 272 272 273
284 284 284 284 284 284 284 283 283 282 280 279 278 277 277 277 277 277 278 279 279 277 277 276 275 274 273 273 272 271 271 271 270 270 270 270 270 270 270 270 270 270 270
281 281 282 282 282 282 282 282 281 280 280 279 278 278 278 278 277 276 276 276 275 275 274 273 272 271 271 271 270 270 270 269 269 269 268 268 268 268 269 269 269 270 270
280 280 280 280 280 281 281 280 280 279 277 276 275 274 275 276 275 274 273 272 272 271 271 271 270 270 269 269 268 268 267 267 267 267 266 267 267 267 267 268 268 268 269
279 279 279 279 278 278 278 278 277 277 276 275 273 272 273 273 273 272 271 270 269 269 268 268 268 267 267 266 265 265 265 265 265 265 265 265 266 266 266 266 267 268 268
278 277 277 276 276 275 275 275 275 274 274 273 273 272 271 271 270 269 268 268 267 266 265 265 265 265 264 264 263 264 264 264 264 263 263 264 264 265 265 265 266 267 267
275 274 274 273 273 273 273 272 271 271 271 271 271 270 269 268 268 267 266 265 265 265 264 264 263 262 262 261 262 262 262 262 261 261 262 262 263 263 264 265 265 266 267
272 272 271 271 271 271 270 270 270 269 269 269 269 268 267 267 266 266 265 264 263 263 263 262 262 262 261 260 259 259 260 259 258 258 259 260 261 262 263 264 265 266 266
269 269 269 269 269 269 269 268 268 267 267 267 266 266 266 265 265 264 263 263 262 261 261 262 261 260 259 260 260 259 257 257 257 256 257 259 260 262 264 264 264 265 265

GFSGL_925_thetae_057.txt.gz
Theta_e
325 325 324 324 325 324 324 324 324 323 322 321 321 321 321 321 321 321 321 321 321 322 322 323 323 323 323 323 322 319 317 316 316 316 314 312 310 309 307 305 303 302 303
324 326 326 327 326 326 325 326 325 325 324 323 321 321 321 321 321 322 322 322 322 322 322 322 323 323 323 322 320 318 317 315 315 313 309 307 306 306 302 301 301 303 303
325 325 327 327 327 327 327 327 327 326 325 324 323 323 322 322 322 322 322 322 322 322 322 323 323 323 323 322 319 316 315 314 313 311 305 304 302 301 300 301 301 301 300
327 326 326 327 327 327 327 327 326 326 326 325 324 323 323 323 322 322 322 322 322 322 322 322 322 323 322 320 317 316 314 312 309 307 303 301 300 300 300 300 299 299 300
328 327 327 327 327 326 326 326 326 325 325 324 324 324 324 323 323 322 321 321 321 321 321 322 322 322 322 320 317 314 312 309 305 302 302 298 299 297 297 298 297 297 297
329 329 328 327 327 326 326 326 326 325 325 325 324 324 324 323 322 321 321 322 321 321 322 322 322 322 321 320 317 314 313 308 303 300 300 299 298 297 296 295 295 294 295
329 329 328 328 327 327 327 326 326 325 325 324 324 324 323 323 322 321 321 321 322 323 322 322 320 318 318 316 311 307 304 302 302 300 299 296 295 294 294 293 292 291 291
328 328 328 328 328 327 327 326 326 325 325 324 324 324 324 323 323 322 321 321 321 322 321 319 315 312 309 308 304 300 297 297 297 296 294 291 290 290 290 289 288 288 288
327 328 328 327 327 327 327 327 326 326 326 325 325 325 324 323 322 322 322 320 318 315 313 310 308 305 301 302 300 295 291 290 288 288 289 288 288 287 286 285 285 286 287
323 327 328 327 326 326 326 326 326 325 324 318 319 319 319 319 319 319 318 315 306 301 298 295 296 295 292 293 293 290 287 284 286 286 283 282 281 281 281 280 282 284 284
320 322 326 327 327 326 326 326 318 310 309 306 305 301 304 304 301 304 306 303 295 290 288 287 287 288 289 289 289 289 286 285 284 282 282 283 282 283 282 282 281 281 282
323 324 319 318 316 314 312 309 310 306 299 293 291 290 290 292 294 296 298 298 293 290 286 285 285 286 286 286 285 284 283 282 282 282 282 282 282 282 282 281 281 281 280
311 307 303 304 303 303 303 299 296 295 292 290 288 286 285 286 286 290 290 290 290 287 285 283 282 282 282 282 280 280 281 282 282 282 282 282 281 280 280 279 279 279 279
297 296 294 294 294 294 294 294 293 291 290 288 287 285 283 283 283 284 284 285 284 282 281 281 281 281 280 280 279 279 280 279 279 279 280 279 279 279 279 279 278 277 277
291 290 289 288 287 286 286 287 288 288 288 286 285 284 283 282 282 282 283 282 282 282 281 281 281 281 282 281 280 279 279 279 279 278 278 278 277 277 277 277 276 276 276
289 288 287 286 285 285 284 283 283 284 285 284 284 282 282 282 282 282 282 282 282 283 284 284 283 283 282 281 281 280 278 277 276 275 275 275 275 275 275 275 275 275 276
287 286 285 285 285 284 283 282 282 282 282 282 282 281 281 280 280 280 280 281 282 282 282 282 281 280 279 279 278 277 276 275 274 274 274 274 274 274 273 274 274 275 275
285 285 285 285 285 284 284 283 282 282 281 280 280 280 280 279 279 280 281 280 280 279 279 279 278 278 277 276 275 274 274 273 274 273 272 273 272 272 272 272 273 273 273
284 285 285 285 284 283 282 281 281 280 280 279 278 278 278 278 278 278 278 279 278 278 277 276 275 275 274 274 273 273 272 272 271 271 271 271 271 270 271 271 271 271 271
283 283 283 283 283 283 282 281 280 280 279 279 279 280 279 277 276 276 276 276 275 275 275 274 273 273 272 272 272 271 271 271 270 270 269 269 269 269 269 269 270 270 270
282 281 281 282 282 282 281 280 279 278 276 276 275 276 276 276 276 275 274 273 273 273 272 272 272 271 271 270 270 269 269 268 268 268 268 268 268 268 268 269 269 268 269
280 279 279 279 279 279 279 279 278 277 276 275 275 274 274 275 274 273 272 271 271 270 270 269 269 269 268 268 267 267 267 267 267 267 266 266 266 267 267 267 267 268 268
278 278 278 277 277 277 277 276 276 276 275 275 274 273 272 272 271 271 270 269 269 268 267 267 267 266 266 265 265 265 265 265 265 265 264 265 265 266 266 266 266 267 268
276 275 275 274 275 275 275 274 273 273 273 273 272 271 271 270 270 269 268 267 267 267 266 266 265 265 264 263 264 263 264 263 262 262 262 263 263 264 264 265 265 266 267
274 274 273 273 273 273 273 272 272 272 272 271 271 270 270 270 269 268 267 266 265 265 265 264 264 264 264 262 261 262 262 261 259 258 259 260 262 263 263 264 265 266 267
271 271 271 271 271 271 271 271 270 270 270 270 269 269 268 268 267 267 266 265 264 263 264 264 264 263 262 262 262 261 260 258 257 257 257 259 260 262 263 265 265 265 265